Attalla, AL

11:17 AM CST on February 19, 2017 (GMT -0600)
Gadsden Municipal

Weather History for KGAD - March, 2013

Change the Weather History Date:

Saturday, March 23, 2013

  Actual Average Record
Temperature  
Mean Temperature 50 °F -  
Max Temperature 55 °F 63 °F 87 °F (1935)
Min Temperature 44 °F 39 °F 24 °F (2002)
Degree Days  
Heating Degree Days 16    
Moisture  
Dew Point 45 °F    
Average Humidity 85    
Maximum Humidity 93    
Minimum Humidity 77    
Precipitation  
Precipitation 1.32 in - - ()
Sea Level Pressure  
Sea Level Pressure 29.88 in    
Wind  
Wind Speed 9 mph (ENE)    
Max Wind Speed 15 mph    
Max Gust Speed 20 mph    
Visibility 9 miles    
Events Thunderstorm    
Averages and records for this station are not official NWS values.
T = Trace of Precipitation, MM = Missing Value Source: NWS Daily Summary

Daily Weather History Graph

Daily Weather History Graph

Search for Another Location

Airport or City:

Trip Planner

Search our weather history database for the weather conditions in past years. The results will help you decide how hot, cold, wet, or windy it might be!

Date:

Astronomy

Mar. 23, 2013 Rise Set
Actual Time 6:43 AM CDT 6:58 PM CDT
Civil Twilight 6:18 AM CDT 7:23 PM CDT
Nautical Twilight 5:49 AM CDT 7:52 PM CDT
Astronomical Twilight 5:19 AM CDT 8:22 PM CDT
Moon 3:33 PM CDT (3/23) 4:10 AM CDT (3/23)
Length of Visible Light 13h 04m
Length of Day
12h 14m
Waxing Gibbous, 85% of the Moon is Illuminated
Mar 23
Waxing Gibbous
Mar 27
Full
Apr 2
Last Quarter
Apr 10
New
Apr 18
First Quarter

Hourly Weather History & Observations

Time (CDT) Temp. Windchill Dew Point Humidity Pressure Visibility Wind Dir Wind Speed Gust Speed Precip Events Conditions
12:15 AM 44.6 °F 40.7 °F 39.2 °F 81% 29.98 in 10.0 mi NE 6.9 mph - N/A   Overcast
12:35 AM 44.6 °F 40.2 °F 39.2 °F 81% 29.97 in 7.0 mi ENE 8.1 mph - 0.02 in   Mostly Cloudy
12:55 AM 44.6 °F 40.7 °F 39.2 °F 81% 29.97 in 9.0 mi ENE 6.9 mph - 0.05 in   Overcast
1:15 AM 44.6 °F 39.7 °F 41.0 °F 87% 29.95 in 10.0 mi ENE 9.2 mph - N/A   Overcast
1:35 AM 44.6 °F 40.7 °F 41.0 °F 87% 29.94 in 10.0 mi East 6.9 mph - N/A   Overcast
1:55 AM 44.6 °F 42.2 °F 41.0 °F 87% 29.95 in 10.0 mi ENE 4.6 mph - N/A   Overcast
2:15 AM 44.6 °F 41.4 °F 41.0 °F 87% 29.94 in 10.0 mi ENE 5.8 mph - N/A   Overcast
2:35 AM 44.6 °F 41.4 °F 42.8 °F 93% 29.93 in 8.0 mi ENE 5.8 mph - 0.01 in   Overcast
2:55 AM 44.6 °F 40.7 °F 42.8 °F 93% 29.93 in 10.0 mi ENE 6.9 mph - 0.01 in   Overcast
3:15 AM 44.6 °F 40.2 °F 42.8 °F 93% 29.92 in 10.0 mi East 8.1 mph - N/A   Overcast
3:35 AM 44.6 °F 40.2 °F 42.8 °F 93% 29.91 in 10.0 mi ENE 8.1 mph - N/A   Overcast
3:55 AM 44.6 °F 39.2 °F 42.8 °F 93% 29.90 in 10.0 mi ENE 10.4 mph - N/A   Overcast
4:15 AM 44.6 °F 39.7 °F 42.8 °F 93% 29.90 in 10.0 mi East 9.2 mph - 0.02 in Thunderstorm Overcast
4:35 AM 44.6 °F 39.7 °F 42.8 °F 93% 29.93 in 7.0 mi NE 9.2 mph - 0.10 in Thunderstorm Mostly Cloudy
4:55 AM 44.6 °F 39.7 °F 42.8 °F 93% 29.90 in 9.0 mi East 9.2 mph - 0.14 in   Mostly Cloudy
5:15 AM 44.6 °F 40.7 °F 42.8 °F 93% 29.94 in 9.0 mi ENE 6.9 mph - 0.04 in Thunderstorm Thunderstorm
5:35 AM 44.6 °F 38.8 °F 42.8 °F 93% 29.93 in 10.0 mi ENE 11.5 mph - 0.06 in   Overcast
5:55 AM 44.6 °F 39.2 °F 42.8 °F 93% 29.94 in 7.0 mi East 10.4 mph - 0.10 in   Overcast
6:15 AM 44.6 °F 39.7 °F 42.8 °F 93% 29.95 in 8.0 mi ENE 9.2 mph - 0.02 in Thunderstorm Overcast
6:35 AM 44.6 °F 40.2 °F 42.8 °F 93% 29.95 in 6.0 mi East 8.1 mph - 0.07 in   Overcast
6:55 AM 44.6 °F 41.4 °F 42.8 °F 93% 29.96 in 7.0 mi ENE 5.8 mph - 0.16 in Thunderstorm Overcast
7:15 AM 44.6 °F 40.7 °F 42.8 °F 93% 29.95 in 5.0 mi East 6.9 mph - 0.11 in Thunderstorm Overcast
7:35 AM 44.6 °F 42.2 °F 42.8 °F 93% 29.98 in 5.0 mi NE 4.6 mph - 0.19 in   Overcast
7:55 AM 44.6 °F 40.7 °F 42.8 °F 93% 29.95 in 4.0 mi East 6.9 mph - 0.30 in   Mostly Cloudy
8:15 AM 44.6 °F 40.2 °F 42.8 °F 93% 29.95 in 5.0 mi East 8.1 mph - 0.02 in   Overcast
8:35 AM 44.6 °F 40.2 °F 42.8 °F 93% 29.94 in 5.0 mi ENE 8.1 mph - 0.02 in   Overcast
8:55 AM 44.6 °F 39.7 °F 42.8 °F 93% 29.95 in 7.0 mi ENE 9.2 mph - 0.02 in   Overcast
9:15 AM 46.4 °F 42.4 °F 42.8 °F 87% 29.95 in 8.0 mi ENE 8.1 mph - N/A   Overcast
9:35 AM 46.4 °F 42.4 °F 42.8 °F 87% 29.95 in 9.0 mi ENE 8.1 mph - N/A   Overcast
9:55 AM 46.4 °F 42.4 °F 44.6 °F 93% 29.95 in 10.0 mi ENE 8.1 mph - N/A   Overcast
10:15 AM 48.2 °F - 44.6 °F 87% 29.95 in 10.0 mi ENE 8.1 mph - N/A   Overcast
10:35 AM 48.2 °F - 44.6 °F 87% 29.95 in 10.0 mi NE 9.2 mph - N/A   Overcast
10:55 AM 50.0 °F - 44.6 °F 82% 29.94 in 10.0 mi ENE 8.1 mph - N/A   Overcast
11:15 AM 50.0 °F - 44.6 °F 82% 29.93 in 10.0 mi ENE 10.4 mph - N/A   Overcast
11:35 AM 51.8 °F - 46.4 °F 82% 29.93 in 10.0 mi ENE 8.1 mph - N/A   Overcast
11:55 AM 51.8 °F - 46.4 °F 82% 29.92 in 10.0 mi ENE 9.2 mph - N/A   Overcast
12:15 PM 51.8 °F - 46.4 °F 82% 29.92 in 10.0 mi East 8.1 mph - N/A   Overcast
12:35 PM 53.6 °F - 46.4 °F 77% 29.91 in 10.0 mi East 9.2 mph - N/A   Overcast
12:55 PM 53.6 °F - 48.2 °F 82% 29.90 in 10.0 mi NE 11.5 mph - N/A   Overcast
1:15 PM 53.6 °F - 46.4 °F 77% 29.91 in 10.0 mi ENE 9.2 mph - N/A   Overcast
1:35 PM 53.6 °F - 46.4 °F 77% 29.89 in 10.0 mi East 9.2 mph - N/A   Overcast
1:55 PM 55.4 °F - 48.2 °F 77% 29.89 in 10.0 mi ENE 10.4 mph - N/A   Overcast
2:15 PM 55.4 °F - 48.2 °F 77% 29.87 in 10.0 mi East 9.2 mph - N/A   Overcast
2:35 PM 55.4 °F - 48.2 °F 77% 29.86 in 10.0 mi ENE 9.2 mph - N/A   Overcast
2:55 PM 55.4 °F - 48.2 °F 77% 29.85 in 10.0 mi ENE 8.1 mph - N/A   Overcast
3:15 PM 55.4 °F - 48.2 °F 77% 29.85 in 10.0 mi ENE 11.5 mph - N/A   Overcast
3:35 PM 55.4 °F - 48.2 °F 77% 29.85 in 10.0 mi ENE 8.1 mph - N/A   Overcast
3:55 PM 53.6 °F - 48.2 °F 82% 29.85 in 10.0 mi ENE 10.4 mph - N/A   Overcast
4:15 PM 55.4 °F - 48.2 °F 77% 29.83 in 10.0 mi NE 9.2 mph - N/A   Overcast
4:35 PM 55.4 °F - 48.2 °F 77% 29.83 in 10.0 mi ENE 11.5 mph - N/A   Overcast
4:55 PM 55.4 °F - 48.2 °F 77% 29.82 in 10.0 mi East 10.4 mph - N/A   Overcast
5:15 PM 55.4 °F - 48.2 °F 77% 29.82 in 10.0 mi ENE 15.0 mph - N/A   Overcast
5:35 PM 53.6 °F - 46.4 °F 77% 29.83 in 10.0 mi ENE 13.8 mph 19.6 mph N/A   Overcast
5:55 PM 53.6 °F - 46.4 °F 77% 29.83 in 10.0 mi East 12.7 mph 16.1 mph N/A   Overcast
6:15 PM 53.6 °F - 46.4 °F 77% 29.83 in 10.0 mi ENE 11.5 mph - N/A   Overcast
6:35 PM 51.8 °F - 46.4 °F 82% 29.80 in 10.0 mi ENE 11.5 mph - N/A   Overcast
6:55 PM 51.8 °F - 46.4 °F 82% 29.79 in 10.0 mi ENE 15.0 mph 18.4 mph N/A   Overcast
7:15 PM 51.8 °F - 46.4 °F 82% 29.79 in 10.0 mi ENE 12.7 mph 17.3 mph N/A   Overcast
7:35 PM 51.8 °F - 46.4 °F 82% 29.79 in 10.0 mi ENE 9.2 mph - N/A   Overcast
7:55 PM 51.8 °F - 46.4 °F 82% 29.79 in 10.0 mi ENE 10.4 mph - N/A   Overcast
8:15 PM 51.8 °F - 46.4 °F 82% 29.78 in 10.0 mi NE 11.5 mph - N/A   Overcast
8:35 PM 51.8 °F - 46.4 °F 82% 29.77 in 8.0 mi ENE 8.1 mph - N/A   Overcast
8:55 PM 51.8 °F - 46.4 °F 82% 29.73 in 6.0 mi ENE 12.7 mph - 0.01 in   Overcast
9:15 PM 51.8 °F - 46.4 °F 82% 29.71 in 7.0 mi NE 15.0 mph 18.4 mph N/A   Overcast
9:35 PM 51.8 °F - 46.4 °F 82% 29.75 in 7.0 mi East 9.2 mph - N/A   Overcast
9:55 PM 51.8 °F - 48.2 °F 88% 29.71 in 5.0 mi NE 9.2 mph - N/A   Overcast
10:15 PM 51.8 °F - 46.4 °F 82% 29.73 in 5.0 mi East 9.2 mph - 0.01 in Thunderstorm Thunderstorm
10:35 PM 51.8 °F - 48.2 °F 88% 29.69 in 4.0 mi ENE 11.5 mph - 0.04 in   Overcast
10:55 PM 51.8 °F - 48.2 °F 88% 29.73 in 5.0 mi NNE 10.4 mph - 0.05 in   Overcast
11:15 PM 51.8 °F - 48.2 °F 88% 29.75 in 7.0 mi NNE 11.5 mph 17.3 mph 0.06 in Thunderstorm Thunderstorm
11:35 PM 51.8 °F - 48.2 °F 88% 29.75 in 5.0 mi North 12.7 mph - 0.23 in Thunderstorm Thunderstorm
11:55 PM 51.8 °F - 48.2 °F 88% 29.73 in 5.0 mi NNE 15.0 mph - 0.48 in Thunderstorm Thunderstorm